Lake Oroville Weather Center

Moon Phase Calendar



Lake Oroville Water Level
Online Cameras

 


      

Current Conditions in Berry Creek
4/15/2021 3:35:44 AM

53°F
Feels Like 50
Clear
Humidity
58%
Pressure
29.97"
Wind
8 mph (SSE)
Dew Point
38°F
UV Index
0/10 (Low)
Visibility
6 mi

Hourly Forecast

Date & Time Thu, Apr 15
3:00 AM
Thu, Apr 15
4:00 AM
Thu, Apr 15
5:00 AM
Thu, Apr 15
6:00 AM
Thu, Apr 15
7:00 AM
Thu, Apr 15
8:00 AM
Thu, Apr 15
9:00 AM
Thu, Apr 15
10:00 AM
Thu, Apr 15
11:00 AM
Thu, Apr 15
12:00 PM
Thu, Apr 15
1:00 PM
Thu, Apr 15
2:00 PM
Thu, Apr 15
3:00 PM
Thu, Apr 15
4:00 PM
Thu, Apr 15
5:00 PM
Thu, Apr 15
6:00 PM
Thu, Apr 15
7:00 PM
Thu, Apr 15
8:00 PM
Thu, Apr 15
9:00 PM
Thu, Apr 15
10:00 PM
Thu, Apr 15
11:00 PM
Fri, Apr 16
12:00 AM
Fri, Apr 16
1:00 AM
Fri, Apr 16
2:00 AM
Fri, Apr 16
3:00 AM
Fri, Apr 16
4:00 AM
Fri, Apr 16
5:00 AM
Fri, Apr 16
6:00 AM
Fri, Apr 16
7:00 AM
Fri, Apr 16
8:00 AM
Fri, Apr 16
9:00 AM
Fri, Apr 16
10:00 AM
Fri, Apr 16
11:00 AM
Fri, Apr 16
12:00 PM
Fri, Apr 16
1:00 PM
Fri, Apr 16
2:00 PM
Fri, Apr 16
3:00 PM
Fri, Apr 16
4:00 PM
Fri, Apr 16
5:00 PM
Fri, Apr 16
6:00 PM
Fri, Apr 16
7:00 PM
Fri, Apr 16
8:00 PM
Fri, Apr 16
9:00 PM
Fri, Apr 16
10:00 PM
Fri, Apr 16
11:00 PM
Sat, Apr 17
12:00 AM
Sat, Apr 17
1:00 AM
Sat, Apr 17
2:00 AM
Condition
Clear

Clear

Clear

Clear

Clear

Clear

Clear

Clear

Clear

Clear

Clear

Clear

Clear

Clear

Clear

Clear

Clear

Clear

Clear

Clear

Clear

Clear

Clear

Clear

Clear

Clear

Clear

Clear

Clear

Clear

Clear

Clear

Clear

Clear

Clear

Clear

Clear

Clear

Clear

Clouds

Clouds

Clouds

Clouds

Clouds

Clouds

Clear

Clear

Clear
Temperature 51°F53°F51°F49°F48°F52°F57°F60°F63°F65°F67°F69°F70°F70°F69°F68°F62°F56°F54°F53°F52°F52°F51°F51°F50°F49°F49°F48°F49°F55°F62°F66°F69°F71°F73°F75°F76°F77°F77°F75°F68°F63°F61°F59°F57°F56°F56°F55°F
Feels Like 49°F50°F49°F48°F46°F49°F55°F58°F61°F63°F66°F67°F68°F68°F67°F66°F60°F54°F52°F51°F50°F49°F49°F48°F48°F47°F46°F46°F46°F53°F59°F64°F67°F69°F72°F74°F75°F76°F75°F74°F67°F61°F58°F56°F54°F53°F52°F52°F
Cloudiness 1%1%1%1%0%0%0%0%0%0%0%1%3%5%6%1%1%1%1%1%1%1%1%1%0%0%0%0%0%0%0%0%0%0%0%0%0%1%3%15%19%28%40%34%29%1%1%1%
Visibility 6 mi6 mi6 mi6 mi6 mi6 mi6 mi6 mi6 mi6 mi6 mi6 mi6 mi6 mi6 mi6 mi6 mi6 mi6 mi6 mi6 mi6 mi6 mi6 mi6 mi6 mi6 mi6 mi6 mi6 mi6 mi6 mi6 mi6 mi6 mi6 mi6 mi6 mi6 mi6 mi6 mi6 mi6 mi6 mi6 mi6 mi6 mi6 mi
Precipitation 0%0%0%0%0%0%0%0%0%0%0%0%0%0%0%0%0%0%0%0%0%0%0%0%0%0%0%0%0%0%0%0%0%0%0%0%0%0%0%0%0%0%0%0%0%0%0%0%
Humidity 60%58%60%61%62%54%45%43%40%37%34%32%30%29%29%35%50%53%54%54%54%53%51%51%51%51%51%52%52%45%36%33%30%29%27%25%24%24%24%32%44%44%44%39%33%30%30%32%
Dew Point 38°F38°F38°F36°F36°F36°F35°F36°F37°F38°F37°F37°F36°F36°F35°F38°F42°F38°F37°F36°F35°F34°F33°F32°F31°F31°F31°F30°F31°F33°F34°F35°F35°F36°F36°F36°F36°F37°F37°F42°F45°F40°F38°F33°F28°F24°F24°F24°F
Pressure 29.97"29.97"29.97"30"30.03"30.03"30.03"30.03"30.03"30"30"29.97"29.94"29.94"29.94"29.94"29.94"29.97"30"30"30"30"30"30"30"30"30"30"30"29.97"29.97"29.94"29.94"29.94"29.91"29.88"29.85"29.85"29.85"29.85"29.85"29.88"29.91"29.94"29.94"29.97"29.97"30"
Wind Speed 5.1 mph4.6 mph5 mph4.5 mph4.6 mph2 mph2.6 mph4.3 mph4.9 mph5.4 mph6.3 mph7.3 mph7.1 mph6.4 mph5.9 mph4.7 mph2.5 mph4.3 mph6.2 mph6.5 mph6.3 mph6.4 mph6.3 mph5.7 mph5.6 mph5.4 mph5.6 mph5.6 mph5.4 mph3.1 mph0.3 mph2.7 mph4.1 mph5 mph5.7 mph7.2 mph8.5 mph8.1 mph8 mph6.1 mph1.3 mph5.8 mph7.3 mph7.7 mph7.4 mph7.8 mph8 mph7.4 mph
Wind
Direction
59°
ENE
50°
NE
50°
NE
52°
NE
54°
NE
47°
NE
248°
WSW
247°
WSW
250°
WSW
248°
WSW
247°
WSW
249°
WSW
250°
WSW
249°
WSW
247°
WSW
238°
WSW
197°
SSW
72°
ENE
57°
ENE
55°
NE
56°
NE
55°
NE
53°
NE
50°
NE
53°
NE
55°
NE
54°
NE
54°
NE
54°
NE
53°
NE
278°
W
243°
WSW
248°
WSW
252°
WSW
258°
WSW
268°
W
280°
W
283°
WNW
283°
WNW
272°
W
240°
WSW
77°
ENE
62°
ENE
62°
ENE
64°
ENE
62°
ENE
54°
NE
45°
NE

Daily Forecast

Date High Low Precip. Humidity
Today
Apr 15

Clear
70 °F
48 °F
0%
34%
Friday
Apr 16

Clear
77 °F
48 °F
0%
27%
Saturday
Apr 17

Clear
81 °F
53 °F
0%
12%
Sunday
Apr 18

Clear
83 °F
55 °F
0%
19%
Monday
Apr 19

Clouds
78 °F
57 °F
0%
30%
Tuesday
Apr 20

Clouds
77 °F
55 °F
19%
39%
Wednesday
Apr 21

Clear
80 °F
55 °F
0%
27%
Thursday
Apr 22

Clear
84 °F
55 °F
0%
15%
Friday
Apr 23

Clouds
82 °F
57 °F
0%
23%
Saturday
Apr 24

Clouds
82 °F
59 °F
0%
22%
Sunday
Apr 25

Clouds
74 °F
56 °F
0%
22%
Monday
Apr 26

Rain
68 °F
48 °F
56%
39%
Tuesday
Apr 27

Clouds
73 °F
49 °F
0%
30%
Wednesday
Apr 28

Clouds
83 °F
54 °F
0%
24%
Thursday
Apr 29

Clouds
82 °F
58 °F
0%
29%
Friday
Apr 30

Clouds
78 °F
53 °F
0%
24%

Temperature 8-14 Day Outlook



Precipitation 8-14 Day Outlook




Quick Links
Lake Oroville News
Lake Oroville Photos
Lake Oroville Videos




About Us
Contact Us
Site Map
Search Site
Advertise With Us
   
Oroville.LakesOnline.com
THE LAKE OROVILLE WEBSITE

Copyright 2021, Lakes Online
Privacy    |    Legal